AirNav   ATP
 
 1027 users online  

K67 Oswego Municipal Airport
Oswego, Kansas, USA

GOING TO OSWEGO?


FAA INFORMATION EFFECTIVE 19 JULY 2018

Location

FAA Identifier: K67
Lat/Long: 37-09-33.8000N / 095-02-29.4000W
37-09.563333N / 095-02.490000W
37.1593889 / -95.0415000
(estimated)
Elevation: 832 ft. / 253.6 m (surveyed)
Variation: 05E (1985)
From city: 3 miles E of OSWEGO, KS
Time zone: UTC -5 (UTC -6 during Standard Time)
Zip code: 66725

Airport Operations

Airport use: Open to the public
Activation date: 08/1961
Control tower: no
ARTCC: KANSAS CITY CENTER
FSS: WICHITA FLIGHT SERVICE STATION
NOTAMs facility: ICT (NOTAM-D service available)
Attendance: UNATNDD
Wind indicator: yes
Segmented circle: no
Beacon: white-green (lighted land airport)
Operates sunset to sunrise.

Airport Communications

CTAF: 122.9

Nearby radio navigation aids

VOR radial/distance  VOR name  Freq  Var
OSWr081/7.8OSWEGO VOR/DME117.6008E
EOSr296/34.7NEOSHO VOR/DME117.3007E
CNUr132/38.4CHANUTE VOR/DME109.2005E

 
NDB name  Hdg/Dist  Freq  Var  ID
COFFEYVILLE076/25.721205ECFV -.-. ..-. ...-

Airport Services

Fuel available: 100LL
SELF SVC FUEL AVBL 24HRS
Parking: tiedowns
Airframe service: NONE
Powerplant service: NONE
Bottled oxygen: NONE
Bulk oxygen: NONE

Runway Information

Runway 17/35

Dimensions: 2500 x 50 ft. / 762 x 15 m
Surface: asphalt, in good condition
Runway edge lights: low intensity
RUNWAY 17  RUNWAY 35
Latitude: 37-09.768857N37-09.356787N
Longitude: 095-02.490013W095-02.490013W
Elevation: 832.0 ft.826.0 ft.
Traffic pattern: leftleft
Runway heading: 175 magnetic, 180 true355 magnetic, 000 true
Markings: basic, in good conditionbasic, in good condition
Obstructions: 23 ft. rr, 660 ft. from runway, 20:1 slope to clearnone

Airport Ownership and Management from official FAA records

Ownership: Publicly-owned
Owner: CITY OF OSWEGO
703 5TH ST
OSWEGO, KS 67356
Phone 620-795-4433
Manager: CALVIN JURGENSEN
PO BOX 210
OSWEGO, KS 67356
Phone (620) 429-0297

Airport Operational Statistics

Aircraft based on the field: 5
Single engine airplanes: 5
    
Aircraft operations: avg 46/month *
73% local general aviation
27% transient general aviation
* for 12-month period ending 23 March 2015

Additional Remarks

PUBLIC PHONE.
WILDLIFE ON & INVOF ARPT.

Instrument Procedures

There are no published instrument procedures at K67.

Some nearby airports with instrument procedures:

KMIO - Miami Regional Airport (17 nm SE)
KPTS - Atkinson Municipal Airport (23 nm NE)
KPPF - Tri-City Airport (24 nm NW)
KCFV - Coffeyville Municipal Airport (26 nm W)
KJLN - Joplin Regional Airport (26 nm E)
 
Loc | Ops | Rwys | IFR | FBO | Links
Com | Nav | Svcs | Stats | Notes

Kansas City Aviation Department
 
Area around K67 (Oswego Municipal Airport)
 
Road maps at: MapQuest Bing Google
 
Aerial photo
No photo
 
Sectional chart

 
Airport distance calculator
Flying to Oswego Municipal Airport? Find the distance to fly.

From to K67

Sunrise and sunset
Times for 19-Jul-2018
 Local
(UTC-5)
 Zulu
(UTC)
Morning civil twilight05:4610:46
Sunrise06:1611:16
Sunset20:3701:37
Evening civil twilight21:0702:07

Current date and time
Zulu (UTC)  20-Jul-2018 01:58:28
Local (UTC-5)  19-Jul-2018 20:58:28
 
METAR
KPTS 
23nm NE 
200155Z AUTO 15007KT 10SM VCTS CLR 26/19 A2984 RMK AO2 LTG DSNT W T02550186
KPPF 
24nm NW 
200152Z AUTO VRB05KT 10SM FEW070 FEW090 SCT110 26/20 A2984 RMK AO2 SLP095 T02610200
KCFV 
26nm W 
200152Z AUTO 08012G18KT 10SM CLR 27/19 A2981 RMK AO2 LTG DSNT W SLP085 T02720189 $
KJLN 
26nm E 
200153Z 14007KT 10SM CLR 23/19 A2985 RMK AO2 RAB17E40 SLP095 P0000 T02330189
KIDP 
35nm W 
200135Z AUTO 08010G18KT 10SM CLR 28/20 A2983 RMK AO2 LTG DSNT SW AND W T02790199
KGMJ 
37nm SE 
200155Z AUTO 08007KT 10SM VCTS CLR 28/20 A2986 RMK AO2 LTG DSNT NW
KCNU 
37nm NW 
200152Z AUTO 14006KT 10SM CLR 24/20 A2984 RMK AO2 SLP094 T02440200
KEOS 
38nm SE 
SuperAWOS
200135Z AUTO 09005KT 10SM 26/21 A2989
KK88 
46nm N 
200135Z AUTO 11006KT 10SM CLR 23/20 A2986 RMK AO1 T02270204
TAF
KJLN 
26nm E 
200023Z 2000/2024 05010G18KT P6SM BKN150 FM200100 15006KT P6SM BKN250 FM200500 14006KT P6SM SKC FM201500 20010KT P6SM SKC
NOTAMs
Click for the latest NOTAMs
NOTAMs are issued by the DoD/FAA and will open in a separate window not controlled by AirNav.

 

 
 

FBO, Fuel Providers, and Aircraft Ground Support

  
 Business Name 
 
 Contact 
 
 Services / Description 
 
Fuel Prices
 
Comments
  
Oswego Municipal Airport 620-795-4433
620-795-2565
[web site]
[email]
Aviation fuel, Aircraft parking (ramp or tiedown), Hangar leasing / sales

More info about Oswego Municipal Airport
Ascent
100LL
SS $4.50 
 Updated 09-Jul-2018
 
   1 read write
SS=Self service
Update Fuel Prices
 

Would you like to see your business listed on this page?

 If your business provides an interesting product or service to pilots, flight crews, aircraft, or users of the Oswego Municipal Airport, you should consider listing it here.  To start the listing process, click on the button below
 
Add a business
 

Other Pages about Oswego Municipal Airport

Update a link
 
Copyright © AirNav, LLC. All rights reserved. Privacy Policy  Contact